Location: Unspecified
(0.0000°N, 0.0000°E)
Time: 13:33:42
(UTC+00:00)

Vanguard 1 Rocket - Visible Passes

Search period start: 07 October 2022 00:00
Search period end: 17 October 2022 00:00
Orbit: 650 x 4225 km, 34.3° (Epoch: 06 October)

Date Brightness Start Highest point End Pass type
(mag) Time Alt. Az. Time Alt. Az. Time Alt. Az.
07 Oct 8.5 03:41:50 25° SSE 03:41:50 25° SSE 03:43:55 10° SE visible
07 Oct 11.1 18:33:04 10° W 18:52:39 27° NNW 19:07:18 10° NNE visible
08 Oct 8.8 04:52:01 10° SW 04:53:40 12° SSW 04:55:36 10° S visible
08 Oct 11.0 20:02:25 10° NW 20:12:39 15° NNW 20:20:37 10° N visible
09 Oct 8.9 03:44:54 17° SSE 03:44:54 17° SSE 03:46:15 10° SSE visible
09 Oct 11.1 18:38:25 10° WNW 18:56:10 23° NNW 19:09:45 10° NNE visible
10 Oct 11.0 20:08:00 10° NW 20:16:56 14° NNW 20:24:01 10° NNE visible
11 Oct 9.3 03:47:51 11° S 03:47:51 11° S 03:48:05 10° S visible
11 Oct 11.1 18:44:05 10° WNW 19:00:05 20° NNW 19:12:30 10° NNE visible
11 Oct 11.1 21:32:10 10° NNW 21:34:02 11° NNW 21:34:02 11° NNW visible
12 Oct 11.0 20:12:32 10° NNW 20:21:21 14° N 20:26:33 12° NNE visible
13 Oct 11.1 18:49:45 10° NW 19:04:20 18° NNW 19:15:45 10° NNE visible
13 Oct 11.1 21:33:25 10° NNW 21:36:20 13° NNW 21:36:20 13° NNW visible
14 Oct 10.9 20:15:53 10° NNW 20:25:47 15° N 20:28:52 14° NNE visible
15 Oct 11.0 18:54:56 10° NW 19:08:50 17° N 19:19:37 10° NNE visible
15 Oct 11.0 21:34:50 10° NNW 21:38:39 15° NNW 21:38:39 15° NNW visible
16 Oct 11.3 17:32:54 10° WNW 17:50:50 22° NNW 18:06:03 10° NNE visible
16 Oct 10.8 20:18:25 10° NNW 20:30:06 18° N 20:31:12 18° N visible
